TimeAKDT,TemperatureF,Dew PointF,Humidity,Sea Level PressureIn,VisibilityMPH,Wind Direction,Wind SpeedMPH,Gust SpeedMPH,PrecipitationIn,Events,Conditions,WindDirDegrees,DateUTC
12:53 AM,26.1,23.0,88,29.77,10.0,West,6.9,-,N/A,,Overcast,270,2013-11-01 08:53:00
1:53 AM,26.1,23.0,88,29.80,10.0,WSW,6.9,-,N/A,,Overcast,250,2013-11-01 09:53:00
2:53 AM,26.1,24.1,92,29.82,4.0,WSW,5.8,-,0.01,Snow,Light Snow,240,2013-11-01 10:53:00
3:28 AM,26.6,24.8,93,29.76,1.8,WSW,4.6,-,0.00,Snow,Light Snow,250,2013-11-01 11:28:00
3:53 AM,26.1,24.1,92,29.85,1.5,WSW,5.8,-,0.01,Snow,Light Snow,250,2013-11-01 11:53:00
4:53 AM,26.1,24.1,92,29.88,1.5,WSW,4.6,-,0.02,Snow,Light Snow,250,2013-11-01 12:53:00
5:21 AM,26.6,24.8,93,29.80,1.0,West,4.6,-,0.02,Snow,Light Snow,270,2013-11-01 13:21:00
5:34 AM,26.6,23.0,86,29.81,1.8,WNW,4.6,-,0.02,Snow,Light Snow,290,2013-11-01 13:34:00
5:43 AM,26.6,23.0,86,29.81,1.8,WNW,4.6,-,0.02,Snow,Light Snow,290,2013-11-01 13:43:00
5:53 AM,26.1,23.0,88,29.90,1.2,West,5.8,-,0.02,Snow,Light Snow,280,2013-11-01 13:53:00
6:19 AM,26.6,23.0,86,29.82,2.5,WNW,6.9,-,0.01,Snow,Light Snow,290,2013-11-01 14:19:00
6:35 AM,26.6,23.0,86,29.83,1.5,WNW,4.6,-,0.02,Snow,Light Snow,290,2013-11-01 14:35:00
6:53 AM,26.1,23.0,88,29.92,1.8,WNW,5.8,-,0.03,Snow,Light Snow,300,2013-11-01 14:53:00
7:53 AM,25.0,23.0,92,29.95,1.5,West,3.5,-,0.02,Snow,Light Snow,260,2013-11-01 15:53:00
8:06 AM,24.8,23.0,93,29.87,2.0,Calm,Calm,-,0.00,Snow,Light Snow,0,2013-11-01 16:06:00
8:18 AM,24.8,23.0,93,29.87,3.0,West,3.5,-,0.00,Snow,Light Snow,260,2013-11-01 16:18:00
8:50 AM,24.8,23.0,93,29.89,2.5,Calm,Calm,-,0.01,Snow,Light Snow,0,2013-11-01 16:50:00
8:53 AM,25.0,23.0,92,29.98,2.5,Calm,Calm,-,0.01,Snow,Light Snow,0,2013-11-01 16:53:00
9:04 AM,24.8,23.0,93,29.89,4.0,West,3.5,-,0.00,Snow,Light Snow,270,2013-11-01 17:04:00
9:29 AM,24.8,23.0,93,29.91,2.5,WNW,4.6,-,0.00,Snow,Light Snow,290,2013-11-01 17:29:00
9:38 AM,24.8,23.0,93,29.91,3.0,WNW,5.8,-,0.00,Snow,Light Snow,290,2013-11-01 17:38:00
9:53 AM,25.0,23.0,92,30.00,7.0,West,3.5,-,0.00,Snow,Light Snow,280,2013-11-01 17:53:00
10:53 AM,24.1,21.9,91,30.03,9.0,West,3.5,-,0.00,,Overcast,260,2013-11-01 18:53:00
11:48 AM,24.8,21.2,86,29.96,6.0,West,4.6,-,0.00,Snow,Light Snow,260,2013-11-01 19:48:00
11:53 AM,24.1,21.9,91,30.05,8.0,West,4.6,-,0.00,Snow,Light Snow,260,2013-11-01 19:53:00
12:33 PM,24.8,21.2,86,29.97,5.0,West,4.6,-,0.00,Snow,Light Snow,270,2013-11-01 20:33:00
12:53 PM,25.0,21.9,88,30.06,5.0,West,4.6,-,0.01,Snow,Light Snow,270,2013-11-01 20:53:00
1:02 PM,24.8,21.2,86,29.98,4.0,WNW,4.6,-,0.00,Snow,Light Snow,300,2013-11-01 21:02:00
1:17 PM,24.8,21.2,86,29.99,3.0,West,4.6,-,0.00,Snow,Light Snow,280,2013-11-01 21:17:00
1:30 PM,24.8,21.2,86,29.99,9.0,West,5.8,-,0.00,Snow,Light Snow,280,2013-11-01 21:30:00
1:53 PM,25.0,21.9,88,30.09,9.0,WNW,5.8,-,0.00,Snow,Light Snow,290,2013-11-01 21:53:00
2:26 PM,24.8,21.2,86,30.01,10.0,WNW,3.5,-,0.00,,Overcast,300,2013-11-01 22:26:00
2:53 PM,25.0,21.9,88,30.11,10.0,WNW,3.5,-,0.00,,Overcast,300,2013-11-01 22:53:00
3:53 PM,25.0,21.9,88,30.11,10.0,Calm,Calm,-,N/A,,Overcast,0,2013-11-01 23:53:00
4:53 PM,25.0,21.9,88,30.12,10.0,Calm,Calm,-,N/A,,Overcast,0,2013-11-02 00:53:00
5:53 PM,25.0,23.0,92,30.12,7.0,Calm,Calm,-,N/A,,Overcast,0,2013-11-02 01:53:00
6:53 PM,24.1,21.9,91,30.13,7.0,Calm,Calm,-,0.00,Snow,Light Snow,0,2013-11-02 02:53:00
7:53 PM,24.1,21.9,91,30.13,6.0,Calm,Calm,-,0.00,,Overcast,0,2013-11-02 03:53:00
8:53 PM,23.0,21.9,96,30.14,10.0,Calm,Calm,-,N/A,,Overcast,0,2013-11-02 04:53:00
9:29 PM,23.0,21.2,93,30.05,10.0,Calm,Calm,-,N/A,,Overcast,0,2013-11-02 05:29:00
9:53 PM,24.1,21.9,91,30.14,10.0,North,3.5,-,N/A,,Overcast,350,2013-11-02 05:53:00
10:13 PM,24.8,21.2,86,30.05,10.0,Calm,Calm,-,N/A,,Overcast,0,2013-11-02 06:13:00
10:37 PM,23.0,21.2,93,30.05,10.0,Calm,Calm,-,N/A,,Overcast,0,2013-11-02 06:37:00
10:53 PM,23.0,21.9,96,30.15,9.0,Calm,Calm,-,N/A,,Overcast,0,2013-11-02 06:53:00
11:53 PM,23.0,21.9,96,30.14,10.0,Calm,Calm,-,N/A,,Overcast,0,2013-11-02 07:53:00